Regional Weather Roundup
Issued by NWS

Home | Current Version | Previous Version | Graphics & Text | Print | Product List | Glossary On
Versions: 1 2 3 4 5 6 7 8 9 10 11 12 13 14 15 16 17 18 19 20 21 22 23 24 25 26 27 28 29 30 31 32 33 34 35 36 37 38 39 40 41 42 43 44 45 46 47 48 49 50
000
ASUS43 KMKX 260921
RWRWI

WISCONSIN REGIONAL WEATHER ROUNDUP
NATIONAL WEATHER SERVICE MILWAUKEE/SULLIVAN WI
400 AM CDT TUE JUL 26 2016

NOTE: "FAIR" INDICATES FEW OR NO CLOUDS BELOW 12,000 FEET WITH NO
SIGNIFICANT WEATHER AND/OR OBSTRUCTIONS TO VISIBILITY.

WIZ001-002-006>008-014>016-023>028-261000-
NORTHWEST WISCONSIN

CITY           SKY/WX    TMP DP  RH WIND       PRES   REMARKS
SUPERIOR ARPT  CLEAR     66  65  94 SW8       29.98F
ASHLAND        CLEAR     65  63  93 SW8       30.00S
HAYWARD        CLEAR     60  58  92 CALM      30.04S
SIREN          PTCLDY    66  64  94 CALM      30.03S
CUMBERLAND     CLEAR     61  59  94 S3        30.06R
RICE LAKE      FOG       62  61  96 CALM      30.07R VSB 1/4
CHETEK         CLEAR     63  62  99 MISG      30.06R
LADYSMITH      CLEAR     62  60  94 CALM      30.07S
EAU CLAIRE     CLEAR     66  65  96 CALM      30.05S
MENOMONIE      CLEAR     64  63  94 CALM      30.06R
NEW RICHMOND   PTCLDY    65  64  95 CALM      30.05S
OSCEOLA        CLEAR     65  65 100 CALM      30.06S
$$

WIZ003>005-009-010-017-018-261000-
NORTH CENTRAL WISCONSIN

CITY           SKY/WX    TMP DP  RH WIND       PRES   REMARKS
MANITOWISH WTR FOG       57  57 100 CALM      30.06R VSB 3/4
ARBOR VITAE    CLEAR     62  60  94 CALM      30.06S
WOODRUFF       CLEAR     62  60  94 CALM      30.06S
RHINELANDER    CLEAR     62  59  90 W6        30.07S
EAGLE RIVER    FOG       59  59 100 CALM      30.06S VSB<1/4
LAND O LAKES   CLEAR     54  54  99 CALM      30.06S
PHILLIPS       CLEAR     62  61  97 CALM      30.06R
TOMAHAWK       CLEAR     56  55  96 CALM      30.07S FOG
MEDFORD        CLEAR     60  60 100 CALM      30.08R
MERRILL        CLEAR     57  57 100 CALM      30.08R
$$

WIZ029-030-035-036-043>047-261000-
CENTRAL WISCONSIN

CITY           SKY/WX    TMP DP  RH WIND       PRES   REMARKS
WAUSAU         CLEAR     63  61  93 CALM      30.06R
MOSINEE        CLEAR     61  61 100 CALM      30.08S
MARSHFIELD     CLEAR     63  59  87 CALM      30.07S
STEVENS POINT  CLEAR     58  58  98 CALM      30.07S
WAUPACA        PTCLDY    64  64  99 CALM      30.05S
WAUTOMA        PTCLDY    61  60  97 CALM      30.06S
WISC RAPIDS    FOG       62  59  90 CALM      30.08R VSB 3/4
CAMP DOUGLAS   FOG       55  55 100 CALM      30.06S VSB 1/2
$$

WIZ011>013-019>022-031-037>040-048>050-261000-
NORTHEAST WISCONSIN

CITY           SKY/WX    TMP DP  RH WIND       PRES   REMARKS
ANTIGO         CLEAR     58  57  99 CALM      30.08R
SHAWANO        CLEAR     62  60  93 CALM      30.05R
OCONTO         CLEAR    N/A N/A N/A CALM      30.02S
STURGEON BAY   CLEAR     64  63  96 SW3       30.03R
GREEN BAY      PTCLDY    63  63 100 W5        30.03R
MANITOWOC      PTCLDY    68  61  78 NW3       30.04R
APPLETON       CLEAR     64  61  88 NW9       30.04R
CLINTONVILLE   PTCLDY    63  61  94 CALM      30.05R
OSHKOSH        PTCLDY    66  61  84 W5        30.04R
$$

WIZ032>034-041-042-053>061-261000-
SOUTHWEST WISCONSIN

CITY           SKY/WX    TMP DP  RH WIND       PRES   REMARKS
LA CROSSE      PTCLDY    67  65  93 SE5       30.06S
SPARTA         PTCLDY    56  56 100 CALM      30.08R
VIROQUA        PTCLDY    64  64 100 NW3       30.09R
BOSCOBEL       FOG       65  65 100 CALM      30.07R VSB 1/4
PRAIRIE DU CHI CLEAR     64  62  93 CALM      30.06S
PLATTEVILLE    CLEAR     65  65 100 CALM      30.08R
$$

WIZ056-057-062-063-064-067-068-261000-
SOUTH CENTRAL WISCONSIN

CITY           SKY/WX    TMP DP  RH WIND       PRES   REMARKS
REEDSBURG      CLEAR     63  63 100 CALM      30.07R
BARABOO/DELLS  CLEAR     61  59  94 CALM      30.07R
LONE ROCK      FOG       63  62  97 CALM      30.08R VSB 1/4
MINERAL POINT  CLEAR     68  64  88 CALM      30.08R
MADISON        PTCLDY    64  63  96 CALM      30.06R
MIDDLETON        N/A     63  63 100 CALM      30.08R VSB 1
WATERTOWN      PTCLDY    62  62 100 CALM      30.06R
MONROE         CLEAR     68  61  77 N3        30.07R
JANESVILLE     FOG       63  63 100 CALM      30.06R VSB 1/2
$$

WIZ051-052-058>065-066-070>072-261000-
SOUTHEAST WISCONSIN

CITY           SKY/WX    TMP DP  RH WIND       PRES   REMARKS
MILWAUKEE      CLEAR     70  63  78 CALM      30.04R
WAUKESHA       CLEAR     63  61  94 CALM      30.06S
MILWAUKEE/TIMM CLEAR     66  59  77 CALM      30.05S
RACINE         CLEAR     68  63  84 W3        30.06R
BURLINGTON     CLEAR     61  61  99 CALM      30.05S FOG
KENOSHA        CLEAR     64  63  96 W5        30.05R
FOND DU LAC    PTCLDY    64  61  90 S5        30.05R
SHEBOYGAN      CLEAR     63  60  90 NW3       30.04R
WEST BEND      CLEAR     61  59  94 CALM      30.05S
JUNEAU         CLEAR     63  62  97 CALM      30.07R
$$

LSZ147-162-261000-
LAKE SUPERIOR

STATION/POSITION TIME  TEMP    WIND        PRES    WAVE
                       AIR SEA DIR/SP/G            HT/PER
                 (UTC) (F)     (DEG/KT/KT) (MB)    (FT/S)
W MID LAKE BUOY  0850   63 60  240/  6/  6 1014.0F   0
DEVILS ISLAND    0900   70     230/ 14/ 16 1014.6F
SAXON HARBOR     0800   68     200/  7/  9 1015.2
$$

LMZ867-665-643>646-261000-
LAKE MICHIGAN

STATION/POSITION TIME  TEMP    WIND        PRES    WAVE
                       AIR SEA DIR/SP/G            HT/PER
                 (UTC) (F)     (DEG/KT/KT) (MB)    (FT/S)
CHAMBERS ISLAND  0840   68     240/  4/  6 1016.3R
S GREEN BAY BUOY 0830   71 74  290/  8/  8   N/A
N MID LAKE BUOY  0850   69 70  210/  4/  4 1015.2S   1
NORTHPORT PIER   0800   66     230/  1/  2 1015.6F
SISTER BAY       0806   67        CALM       N/A
ALGOMA LAKESHORE 0843          320/  7/  8   N/A
KEWAUNEE LAKESHO 0800   67     300/  5/  7 1015.9S
SHEBOYGAN LAKESH 0900   71     280/  9/ 10 1016.8R
PORT WASHINGTON  0800   71     300/  8/  9 1017.3S
ATWATER BUOY     0900   66 59  300/  4/  4 1018.8R
MILWAUKEE LAKESH 0810   71     320/  2/  3   N/A
S MID LAKE BUOY  0850   73 73  220/  4/  6 1016.2R   0
KENOSHA   LAKESH 0900   71     270/  7/  9 1016.9R
$$

TC  - TEMPERATURE IN CELSIUS
VSB - VISIBILITY IN STATUTE MILES
WCI - WIND CHILL INDEX
HX  - HEAT INDEX




USA.gov is the U.S. government's official web portal to all federal, state and local government web resources and services.